This is the latest recevied weather packets stored in our database for station/object KI4NG. If no packets are shown the sender has not sent any weather packets the latest 10 day(s).
| Time | Temp. | Humidity | Pressure | Rain* | Wind** | Luminosity | Snow |
|---|---|---|---|---|---|---|---|
| 1787852863 | 28.33° C | 67% | 1017.9 hPa | 0 mm | - | 170 W/m² | - |
| 1787852563 | 28.33° C | 66% | 1017.9 hPa | 0 mm | - | 522 W/m² | - |
| 1787852262 | 27.78° C | 65% | 1017.8 hPa | 0 mm | - | 224 W/m² | - |
| 1787851956 | 27.78° C | 66% | 1017.8 hPa | 0 mm | - | 798 W/m² | - |
| 1787851656 | 28.89° C | 65% | 1017.8 hPa | 0 mm | - | 806 W/m² | - |
| 1787851355 | 28.33° C | 66% | 1018 hPa | 0 mm | - | 761 W/m² | - |
| 1787851051 | 27.78° C | 64% | 1017.9 hPa | 0 mm | - | 741 W/m² | - |
| 1787850747 | 27.78° C | 66% | 1018 hPa | 0 mm | - | 729 W/m² | - |
| 1787850442 | 27.78° C | 67% | 1018.1 hPa | 0 mm | - | 724 W/m² | - |
| 1787850137 | 27.22° C | 70% | 1018.1 hPa | 0 mm | - | 667 W/m² | - |
| 1787849837 | 27.78° C | 69% | 1018.2 hPa | 0 mm | - | 324 W/m² | - |
| 1787849532 | 27.78° C | 68% | 1018.3 hPa | 0 mm | - | 740 W/m² | - |
| 1787849231 | 27.78° C | 68% | 1018.3 hPa | 0 mm | - | 727 W/m² | - |
| 1787848930 | 27.78° C | 67% | 1018.6 hPa | 0 mm | - | 763 W/m² | - |
| 1787848625 | 27.22° C | 70% | 1018.3 hPa | 0 mm | - | 779 W/m² | - |
| 1787848320 | 27.78° C | 71% | 1018.2 hPa | 0 mm | - | 565 W/m² | - |
| 1787848014 | 27.22° C | 72% | 1018.1 hPa | 0 mm | - | 772 W/m² | - |
| 1787847714 | 27.78° C | 70% | 1018.2 hPa | 0 mm | - | 536 W/m² | - |
| 1787847414 | 27.78° C | 69% | 1018.5 hPa | 0 mm | - | 818 W/m² | - |
| 1787847104 | 27.22° C | 73% | 1018.8 hPa | 0 mm | - | 720 W/m² | - |
| 1787846801 | 27.22° C | 72% | 1018.3 hPa | 0 mm | - | 717 W/m² | - |
| 1787846496 | 27.22° C | 72% | 1018.3 hPa | 0 mm | - | 715 W/m² | - |
| 1787846191 | 27.22° C | 75% | 1018.2 hPa | 0 mm | - | 800 W/m² | - |
| 1787845887 | 26.67° C | 74% | 1018.6 hPa | 0 mm | - | 801 W/m² | - |
| 1787845582 | 27.22° C | 72% | 1018.6 hPa | 0 mm | - | 773 W/m² | - |
* Rain latest hour (hover to see other rain measurements)
** Current wind speed in m/s (hover to see current wind gust speed)